Weather History for Westhampton Beach, NY

Change the Weather History Date:

Sunday, April 6, 2014

  Actual Average Record
Temperature  
Mean Temperature 38 °F -  
Max Temperature 55 °F 51 °F 55 °F (2005)
Min Temperature 21 °F 33 °F 21 °F (2002)
Degree Days  
Heating Degree Days 28    
Moisture  
Dew Point 23 °F    
Average Humidity 54    
Maximum Humidity 78    
Minimum Humidity 26    
Precipitation  
Precipitation 0.00 in - - ()
Sea Level Pressure  
Sea Level Pressure 30.17 in    
Wind  
Wind Speed 6 mph (West)    
Max Wind Speed 13 mph    
Max Gust Speed 17 mph    
Visibility 10 miles    
Events      
Averages and records for this station are not official NWS values.
T = Trace of Precipitation, MM = Missing Value Source: NWS Daily Summary

Daily Weather History Graph

Daily Weather History Graph

Search for Another Location

Airport:

Trip Planner

Search our weather history database for the weather conditions in past years. The results will help you decide how hot, cold, wet, or windy it might be!

Date:

Astronomy

Apr. 06, 2014 Rise Set
Actual Time 6:25 AM EDT 7:20 PM EDT
Civil Twilight 5:57 AM EDT 7:48 PM EDT
Nautical Twilight 5:24 AM EDT 8:21 PM EDT
Astronomical Twilight 4:50 AM EDT 8:56 PM EDT
Moon 11:22 AM EDT (4/6) 1:15 AM EDT (4/6)
Length of Visible Light 13h 50m
Length of Day
12h 54m
Waxing Crescent, 43% of the Moon is Illuminated
Apr 6
Waxing Crescent
Apr 7
First Quarter
Apr 15
Full
Apr 22
Last Quarter
Apr 29
New

Hourly Weather History & Observations

Time (EDT) Temp. Windchill Dew Point Humidity Pressure Visibility Wind Dir Wind Speed Gust Speed Precip Events Conditions
12:53 AM 35.1 °F 30.1 °F 21.0 °F 57% 30.07 in 10.0 mi West 5.8 mph - N/A   Clear
1:53 AM 30.9 °F 26.2 °F 19.9 °F 64% 30.08 in 10.0 mi West 4.6 mph - N/A   Clear
2:53 AM 30.0 °F 25.2 °F 19.9 °F 66% 30.08 in 10.0 mi WSW 4.6 mph - N/A   Clear
3:53 AM 32.0 °F 26.4 °F 21.0 °F 64% 30.09 in 10.0 mi West 5.8 mph - N/A   Clear
4:53 AM 23.0 °F 18.4 °F 15.1 °F 72% 30.11 in 10.0 mi West 3.5 mph - N/A   Clear
5:53 AM 24.1 °F - 16.0 °F 71% 30.15 in 10.0 mi Calm Calm - N/A   Clear
6:53 AM 21.0 °F 14.6 °F 15.1 °F 78% 30.17 in 10.0 mi West 4.6 mph - N/A   Clear
7:53 AM 35.1 °F 29.3 °F 25.0 °F 67% 30.20 in 10.0 mi West 6.9 mph - N/A   Clear
8:53 AM 41.0 °F 35.2 °F 24.1 °F 51% 30.20 in 10.0 mi NW 9.2 mph - N/A   Clear
9:53 AM 43.0 °F 37.7 °F 21.9 °F 43% 30.20 in 10.0 mi NNW 9.2 mph - N/A   Clear
10:53 AM 45.0 °F 40.1 °F 21.0 °F 39% 30.20 in 10.0 mi NW 9.2 mph 17.3 mph N/A   Clear
11:53 AM 48.0 °F - 19.9 °F 33% 30.19 in 10.0 mi NW 10.4 mph - N/A   Clear
12:53 PM 48.9 °F - 19.0 °F 31% 30.18 in 10.0 mi NW 8.1 mph - N/A   Clear
1:53 PM 52.0 °F - 18.0 °F 26% 30.17 in 10.0 mi NW 8.1 mph - N/A   Clear
2:53 PM 54.0 °F - 23.0 °F 30% 30.18 in 10.0 mi WSW 9.2 mph - N/A   Clear
3:53 PM 51.1 °F - 26.1 °F 38% 30.18 in 10.0 mi SW 12.7 mph - N/A   Clear
4:53 PM 51.1 °F - 26.1 °F 38% 30.17 in 10.0 mi SW 11.5 mph 17.3 mph N/A   Clear
5:53 PM 48.9 °F - 24.1 °F 38% 30.16 in 10.0 mi SW 10.4 mph - N/A   Clear
6:53 PM 46.0 °F 43.9 °F 28.0 °F 50% 30.16 in 10.0 mi SSW 4.6 mph - N/A   Clear
7:53 PM 41.0 °F 38.0 °F 28.9 °F 62% 30.18 in 10.0 mi SSW 4.6 mph - N/A   Clear
8:53 PM 42.1 °F 38.4 °F 30.0 °F 62% 30.22 in 10.0 mi SW 5.8 mph - N/A   Clear
9:53 PM 42.1 °F 38.4 °F 30.9 °F 65% 30.24 in 10.0 mi SW 5.8 mph - N/A   Clear
10:53 PM 39.9 °F - 30.0 °F 68% 30.23 in 10.0 mi Calm Calm - N/A   Clear
11:53 PM 39.0 °F 35.7 °F 30.9 °F 73% 30.23 in 10.0 mi SW 4.6 mph - N/A   Clear